Location: Newark
(15.4608°S, 41.1635°W)
Time: 23:57:41
(UTC+00:00)

Tiros 1 despin weight - Visible Passes

Search period start: 30 July 2021 00:00
Search period end: 09 August 2021 00:00
Orbit: 593 x 642 km, 48.2° (Epoch: 30 July)

Date Brightness Start Highest point End Pass type
(mag) Time Alt. Az. Time Alt. Az. Time Alt. Az.
06 Aug ? 08:34:14 10° SSE 08:36:23 13° SE 08:38:32 10° ESE visible
07 Aug ? 22:44:53 10° NNW 22:45:34 14° NNW 22:45:34 14° NNW visible
08 Aug ? 23:00:49 10° NW 23:01:52 17° NW 23:01:52 17° NW visible
